Regional Weather Roundup
Issued by NWS

Home | Current Version | Previous Version | Text Only | Print | Product List | Glossary On
Versions: 1 2 3 4 5 6 7 8 9 10 11 12 13 14 15 16 17 18 19 20 21 22 23 24 25 26 27 28 29 30 31 32 33 34 35 36 37 38 39 40 41 42 43 44 45 46 47 48 49 50
000
ASUS45 KABQ 290410
RWRNM
NEW MEXICO REGIONAL WEATHER ROUNDUP
NATIONAL WEATHER SERVICE ALBUQUERQUE NM
1000 PM MDT FRI APR 28 2017

NOTE: "FAIR" MEANS FEW OR NO CLOUDS BELOW 12,000 FEET AGL WITH NO
       SIGNIFICANT WEATHER OR OBSTRUCTIONS TO VISION.

      THIS PRODUCT IS RELEASED AS TWO VERSIONS.  ONE VERSION NEAR
      THE TOP OF THE HOUR CONTAINING PRELIMINARY DATA FROM ALBUQUERQUE
      AND OTHER STATIONS.  A FINAL VERSION WITH ADDITIONAL DATA IS
      ISSUED ABOUT 10 MINUTES AFTER THE HOUR.

NMZ501-503-504-510>518-290500-
NORTHWEST PLATEAU/NORTHCENTRAL MOUNTAINS

CITY           SKY/WX    TMP DP  RH WIND       PRES   REMARKS
FARMINGTON     FAIR      35  30  82 NW3       29.78R
LOS ALAMOS     CLOUDY    35  35 100 CALM      29.84R
SANTA FE       CLOUDY    38  38 100 NW5       29.80R WCI  34
TAOS             N/A     37  27  65 S3        29.82R
ANGEL FIRE     CLOUDY    30  27  86 SW5       29.84R WCI  25

$$
NMZ402-403-502-505>509-290500-
WESTCENTRAL MOUNTAINS/SOUTHWEST MOUNTAINS

CITY           SKY/WX    TMP DP  RH WIND       PRES   REMARKS
GALLUP         CLOUDY    38  26  62 CALM      29.84R
GRANTS         LGT SNOW  31  31  97 CALM      29.88S
SILVER CITY    CLOUDY    55  46  72 W7        29.74R

$$
NMZ407-409-411-412-290500-
SOUTHERN DESERTS

CITY           SKY/WX    TMP DP  RH WIND       PRES   REMARKS
DEMING         CLOUDY    66  45  46 W21G28    29.67R
LAS CRUCES     DRIZZLE   67  44  42 W21G31    29.68R
HOLLOMAN AFB   LGT RAIN  59  43  55 N15       29.71R
ALAMOGORDO     FAIR      59  37  44 NW10      29.65R
T OR C         LGT RAIN  46  42  86 NE15      29.72R

$$
NMZ519>523-290500-
CENTRAL VALLEYS/CENTRAL HIGHLANDS

CITY           SKY/WX    TMP DP  RH WIND       PRES   REMARKS
ALBUQUERQUE    CLOUDY    42  32  67 NW12      29.84R
DOUBLE EAGLE   CLOUDY    37  30  75 NW9       29.85R WCI  31
MORIARTY ARPT  FLURRIES  34  34  99 CALM      29.82S
CLINES CORNERS LGT SNOW  32  31  96 NW8       29.81R VSB 1   WCI  25
BELEN          CLOUDY    39  34  80 NW16      29.85R WCI  31
SOCORRO        RAIN      39  37  91 N13       29.82R WCI  32

$$
NMZ524>526-539-540-290500-
SOUTHCENTRAL MOUNTAINS

CITY           SKY/WX    TMP DP  RH WIND       PRES   REMARKS
RUIDOSO        CLOUDY    41  37  87 SE10      29.79S

$$
NMZ527>531-290500-
NORTHEAST HIGHLANDS/NORTHEAST PLAINS

CITY           SKY/WX    TMP DP  RH WIND       PRES   REMARKS
LAS VEGAS      LGT RAIN  36  34  92 E6        29.80R WCI  31
RATON          LGT RAIN  40  31  70 N13       29.79R WCI  32
CLAYTON        LGT RAIN  41  40  96 NE5       29.80R

$$
NMZ532>537-290500-
EASTCENTRAL PLAINS

CITY           SKY/WX    TMP DP  RH WIND       PRES   REMARKS
SANTA ROSA     CLOUDY    44  41  91 N6        29.80R
TUCUMCARI      RAIN      48  46  93 N10       29.80R
CANNON AFB     FAIR      48  42  79 N23       29.73R
CLOVIS AIRPORT FAIR      48  37  66 N25       29.76R

$$
NMZ028-029-538-290500-
SOUTHEAST PLAINS

CITY           SKY/WX    TMP DP  RH WIND       PRES   REMARKS
ROSWELL        FAIR      58  37  45 NE21G28     N/A
ARTESIA        FAIR      59  37  44 N23G32    29.69R
CARLSBAD       NOT AVBL
HOBBS          FAIR      57  41  54 N22G29    29.66R


$$




USA.gov is the U.S. government's official web portal to all federal, state and local government web resources and services.